Starlink 36265

operational
NORAD ID: 67208 Int'l Des: 2025-304 Owner: SPXS Country: US Constellation: starlink
LEOCIRCULAR

Über Starlink 36265

Beschreibung wird geladen...

Live-Position

3D-Globus wird geladen...

Nächste Überflüge

Höhenverlauf

Altitude vs Time

uPlot chart will show altitude changes over time

Zweizeiliger Elementsatz

1 67208C 25304S 25352.76645833 .00719690 00000+0 98514-3 0 3520
2 67208 69.9978 31.2747 0009261 253.6136 230.5553 16.05152655 11
Epoch: 18. Dez. 2025 • Age: 61 hours

Aktueller Status

Höhe 269.8 km
Geschwindigkeit 7.75 km/s
Subsatellitenpunkt -56.27°S, 69.41°E
Startdatum 17. Dez. 2025
Alter 2 days
Typ internet

Technische Details

Klassifizierung Payload
Masse 575.00 kg
Trockenmasse 530.00 kg
Gesamtmasse 575.00 kg
Länge 0.30 m
Durchmesser 4.10 m
Spannweite 29.00 m
Form Box + pan
Hersteller SPXS
Bus-Typ Starlink V2MO
Phasenstatus In Orbit
Besitzer/Staat SPXS/US

Große Konstellationen

Loading constellations...